Погода в Кушве

Россия / Свердловская область     58°16′57″N   59°45′52″E
темп.,
°C
ветер,
м/с
пор.,
м/с
влажн.,
%
обл.,
%
осадки,
мм/ч
давл.,
гПа
погр.,
м
25 мая, ср
ср2523:00+8св2291100 0.1 100927
02:00+9ссв2299100 1.8 100962
05:00+11вюв31299100 5.6 1006659
08:00+13вюв3997100 1.1 1005443
11:00+14вюв489489 1.2 1004456
14:00+16юв5138498 1.6 1003866
17:00+20юв81964100 1.9 10012394
20:00+10зюз3996100 3.9 1006445
26 мая, чт
чт2623:00+9зюз2597100 8.4 1007263
02:00+7юз259812 0.0 1008121
05:00+6юз23975 0.0 100974
08:00+10юз498662 0.0 1010758
11:00+10зюз586723 0.1 10121105
14:00+13з464210 0.0 10121884
17:00+14з344194 0.0 10122025
20:00+11зсз256183 0.0 1011135
27 мая, пт
пт2723:00+6зсз2477100 0.0 101264
02:00+4зсз228096 0.0 101224
05:00+5з2577100 0.0 1011129
08:00+9зсз47614 0.0 1011736
11:00+13з464915 0.0 10101666
14:00+16з46429 0.0 10102035
17:00+15з464518 0.0 10101571
20:00+13зюз2268100 0.0 101128
28 мая, сб
сб2823:00+9ююз1178100 0.0 101110
02:00+8ю118185 0.0 101115
05:00+7ююз11856 0.0 101113
08:00+13ю2368100 0.0 1011330
11:00+16ююз366155 0.1 10111266
14:00+17ююз475563 0.3 10111598
17:00+17юз45585 0.4 1011965
20:00+16ююз376946 0.1 1012297
29 мая, вс
вс2923:00+11ююз24915 0.1 101363
02:00+9ю299617 0.0 1013218
05:00+12ююз41285100 0.0 1013689
08:00+12ююз51393100 1.1 1013844
11:00+13юз51089100 1.1 10141061
14:00+18зюз6105463 0.2 10161919
17:00+18зюз51149100 0.3 10162092
20:00+15зюз3862100 0.0 1016587